Location: Follega
(52.8850°N, 5.7362°E)
Time: 10:35:38
(UTC+00:00)

CARTOSAT-1 - Pass Details

Date: 08 October 2020
Orbit: 616 x 619 km, 97.8° (Epoch: 20 October)

Event Time Altitude Azimuth Distance (km) Brightness Sun altitude
Exits shadow 21:14:34 15° 341° (NNW) 1,672 6.3 -36.4°
Drops below altitude 10° 21:15:22 10° 343° (NNW) 1,993 6.8 -36.5°
Sets 21:17:34 0° 345° (NNW) 2,903 7.8 -36.7°
